| time (UTC) | temp C | wind direction | speed KPH | gust KPH | rain 1hr cm | rain 24hr cm | rain mn cm | humidity % | barometer mb |
| 20260504171526 | 15 | 121 | 0.0 | 1.6 | 0.00 | 0.00 | 0.00 | 58 | 1014.4 |
| 20260504081505 | 15 | 259 | 0.0 | 3.2 | 0.00 | 0.00 | 0.00 | 60 | 1009.9 |
| 20260504050012 | 21 | 283 | 0.0 | 0.0 | 0.00 | 0.00 | 0.00 | 40 | 1008.1 |
| 20260504044526 | 22 | 283 | 0.0 | 0.0 | 0.00 | 0.00 | 0.00 | 36 | 1007.9 |
| 20260504043030 | 22 | 321 | 0.0 | 1.6 | 0.00 | 0.00 | 0.00 | 35 | 1007.6 |
| 20260504041525 | 23 | 264 | 0.0 | 3.2 | 0.00 | 0.00 | 0.00 | 34 | 1007.5 |
| 20260504040025 | 23 | 219 | 0.0 | 1.6 | 0.00 | 0.00 | 0.00 | 34 | 1007.2 |
| 20260504034522 | 25 | 291 | 0.0 | 1.6 | 0.00 | 0.00 | 0.00 | 32 | 1007.1 |
| 20260504033021 | 25 | 293 | 0.0 | 3.2 | 0.00 | 0.00 | 0.00 | 32 | 1007.0 |
| 20260504031517 | 26 | 292 | 0.0 | 3.2 | 0.00 | 0.00 | 0.00 | 31 | 1007.0 |
| 20260504030029 | 27 | 285 | 0.0 | 4.8 | 0.00 | 0.00 | 0.00 | 30 | 1007.0 |
| 20260504024530 | 29 | 229 | 0.0 | 1.6 | 0.00 | 0.00 | 0.00 | 24 | 1006.7 |
| 20260504023027 | 30 | 224 | 0.0 | 0.0 | 0.00 | 0.00 | 0.00 | 22 | 1006.7 |
| 20260504021528 | 31 | 297 | 0.0 | 1.6 | 0.00 | 0.00 | 0.00 | 19 | 1006.7 |
| 20260504020002 | 31 | 227 | 0.0 | 6.4 | 0.00 | 0.00 | 0.00 | 19 | 1006.7 |
| 20260504014503 | 31 | 289 | 0.0 | 4.8 | 0.00 | 0.00 | 0.00 | 20 | 1006.7 |
| 20260504013007 | 31 | 41 | 0.0 | 6.4 | 0.00 | 0.00 | 0.00 | 21 | 1006.8 |
| 20260504011503 | 32 | 302 | 0.0 | 4.8 | 0.00 | 0.00 | 0.00 | 20 | 1006.9 |
| 20260504010003 | 33 | 287 | 0.0 | 1.6 | 0.00 | 0.00 | 0.00 | 18 | 1007.1 |
| 20260504004506 | 32 | 283 | 1.6 | 9.7 | 0.00 | 0.00 | 0.00 | 18 | 1007.2 |
| 20260504003004 | 32 | 287 | 0.0 | 6.4 | 0.00 | 0.00 | 0.00 | 18 | 1007.3 |
| 20260504001503 | 32 | 290 | 0.0 | 8.0 | 0.00 | 0.00 | 0.00 | 19 | 1007.4 |
| 20260504000005 | 32 | 302 | 1.6 | 9.7 | 0.00 | 0.00 | 0.00 | 19 | 1007.3 |
| 20260503234503 | 32 | 26 | 0.0 | 4.8 | 0.00 | 0.00 | 0.00 | 21 | 1007.3 |
| 20260503233002 | 32 | 330 | 0.0 | 3.2 | 0.00 | 0.00 | 0.00 | 19 | 1007.5 |
| 20260503231504 | 32 | 310 | 0.0 | 3.2 | 0.00 | 0.00 | 0.00 | 18 | 1007.7 |
| 20260503230004 | 32 | 206 | 0.0 | 4.8 | 0.00 | 0.00 | 0.00 | 22 | 1008.0 |
| 20260503224504 | 32 | 80 | 0.0 | 4.8 | 0.00 | 0.00 | 0.00 | 21 | 1008.3 |
| 20260503223005 | 32 | 311 | 0.0 | 3.2 | 0.00 | 0.00 | 0.00 | 20 | 1008.4 |
| 20260503221506 | 32 | 302 | 0.0 | 1.6 | 0.00 | 0.00 | 0.00 | 24 | 1008.6 |
| 20260503220006 | 31 | 293 | 0.0 | 3.2 | 0.00 | 0.00 | 0.00 | 25 | 1008.9 |
| 20260503214518 | 31 | 59 | 0.0 | 3.2 | 0.00 | 0.00 | 0.00 | 27 | 1009.1 |
| 20260503213004 | 30 | 315 | 0.0 | 8.0 | 0.00 | 0.00 | 0.00 | 27 | 1009.3 |
| 20260503211509 | 30 | 297 | 0.0 | 3.2 | 0.00 | 0.00 | 0.00 | 29 | 1009.6 |
| 20260503210024 | 29 | 172 | 0.0 | 4.8 | 0.00 | 0.00 | 0.00 | 32 | 1009.6 |
| 20260503204510 | 29 | 66 | 0.0 | 1.6 | 0.00 | 0.00 | 0.00 | 32 | 1009.8 |
| 20260503203014 | 28 | 297 | 0.0 | 8.0 | 0.00 | 0.00 | 0.00 | 33 | 1009.9 |
| 20260503201508 | 28 | 51 | 0.0 | 1.6 | 0.00 | 0.00 | 0.00 | 34 | 1010.0 |
| 20260503200007 | 27 | 340 | 0.0 | 1.6 | 0.00 | 0.00 | 0.00 | 37 | 1010.2 |
| 20260503194512 | 26 | 41 | 0.0 | 3.2 | 0.00 | 0.00 | 0.00 | 38 | 1010.5 |
| 20260503193014 | 25 | 291 | 0.0 | 3.2 | 0.00 | 0.00 | 0.00 | 42 | 1010.9 |
| 20260503191510 | 25 | 307 | 0.0 | 3.2 | 0.00 | 0.00 | 0.00 | 42 | 1011.0 |
| 20260503190012 | 25 | 314 | 0.0 | 1.6 | 0.00 | 0.00 | 0.00 | 41 | 1011.2 |
| 20260503184520 | 25 | 141 | 0.0 | 1.6 | 0.00 | 0.00 | 0.00 | 44 | 1011.3 |
| 20260503183009 | 24 | 61 | 0.0 | 1.6 | 0.00 | 0.00 | 0.00 | 45 | 1011.5 |
| 20260503181514 | 23 | 92 | 0.0 | 1.6 | 0.00 | 0.00 | 0.00 | 48 | 1011.5 |
| 20260503180014 | 22 | 147 | 0.0 | 1.6 | 0.00 | 0.00 | 0.00 | 53 | 1011.7 |
| 20260503174517 | 21 | 70 | 0.0 | 3.2 | 0.00 | 0.00 | 0.00 | 56 | 1011.9 |
| 20260503173016 | 20 | 287 | 0.0 | 3.2 | 0.00 | 0.00 | 0.00 | 60 | 1011.9 |